When you browse on this site, cookies collect data to enhance your experience and personalize the content and advertising you see.
Visit our Privacy Policy to learn more. By continuing to use the site, you agree to this use of cookies and data.
  • Em Portugal
  • Lista de países
  • Para 7 dias
  • Temperatura da água
  • Mapa do tempo
  • Widgets de tempo
  • user-avatar
    Iniciar Sessão

    Previsão horária em Poti

    Hoje, 10 Dezembro, Terça-feira

    Tempo Temperatura Precipitação Vento Pressão Humidade
    00:00 +5°C° 0 mm 3 m/s 765 mmHg 80%
    01:00 +4°C° 0 mm 3 m/s 765 mmHg 80%
    02:00 +4°C° 0 mm 3 m/s 765 mmHg 80%
    03:00 +4°C° 0 mm 4 m/s 765 mmHg 77%
    04:00 +4°C° 0 mm 4 m/s 765 mmHg 75%
    05:00 +4°C° 0 mm 4 m/s 765 mmHg 73%
    06:00 +4°C° 0 mm 4 m/s 765 mmHg 71%
    07:00 +3°C° 0 mm 5 m/s 765 mmHg 67%
    08:00 +5°C° 0 mm 5 m/s 764 mmHg 63%
    09:00 +6°C° 0 mm 5 m/s 764 mmHg 59%
    10:00 +8°C° 0 mm 5 m/s 764 mmHg 55%
    11:00 +9°C° 0 mm 5 m/s 763 mmHg 51%
    12:00 +12°C° 0 mm 5 m/s 763 mmHg 47%
    13:00 +13°C° 0 mm 4 m/s 763 mmHg 47%
    14:00 +13°C° 0 mm 4 m/s 762 mmHg 47%
    15:00 +13°C° 0 mm 4 m/s 762 mmHg 48%
    16:00 +11°C° 0 mm 4 m/s 763 mmHg 52%
    17:00 +10°C° 0 mm 4 m/s 763 mmHg 57%
    18:00 +7°C° 0 mm 4 m/s 763 mmHg 61%
    19:00 +7°C° 0 mm 4 m/s 763 mmHg 61%
    20:00 +7°C° 0 mm 4 m/s 764 mmHg 60%
    21:00 +6°C° 0 mm 4 m/s 764 mmHg 60%
    22:00 +6°C° 0 mm 4 m/s 764 mmHg 60%
    23:00 +6°C° 0 mm 4 m/s 764 mmHg 59%

    Amanhã, 11 Dezembro, Quarta-feira

    Tempo Temperatura Precipitação Vento Pressão Humidade
    00:00 +6°C° 0 mm 4 m/s 764 mmHg 59%
    01:00 +6°C° 0 mm 4 m/s 764 mmHg 59%
    02:00 +5°C° 0 mm 4 m/s 764 mmHg 59%
    03:00 +5°C° 0 mm 4 m/s 764 mmHg 58%
    04:00 +5°C° 0 mm 4 m/s 764 mmHg 58%
    05:00 +5°C° 0 mm 4 m/s 764 mmHg 58%
    06:00 +4°C° 0 mm 4 m/s 764 mmHg 58%
    07:00 +5°C° 0 mm 4 m/s 764 mmHg 57%
    08:00 +5°C° 0 mm 4 m/s 764 mmHg 56%
    09:00 +7°C° 0 mm 3 m/s 764 mmHg 55%
    10:00 +8°C° 0 mm 3 m/s 764 mmHg 52%
    11:00 +10°C° 0 mm 3 m/s 763 mmHg 49%
    12:00 +12°C° 0 mm 3 m/s 763 mmHg 45%
    13:00 +13°C° 0 mm 2 m/s 763 mmHg 46%
    14:00 +14°C° 0 mm 2 m/s 763 mmHg 47%
    15:00 +14°C° 0 mm 2 m/s 763 mmHg 48%
    16:00 +12°C° 0 mm 2 m/s 763 mmHg 50%
    17:00 +10°C° 0 mm 2 m/s 763 mmHg 53%
    18:00 +8°C° 0 mm 2 m/s 763 mmHg 56%
    19:00 +8°C° 0 mm 2 m/s 764 mmHg 57%
    20:00 +8°C° 0 mm 2 m/s 764 mmHg 59%
    21:00 +7°C° 0 mm 3 m/s 764 mmHg 60%
    22:00 +7°C° 0 mm 3 m/s 764 mmHg 61%
    23:00 +5°C° 0 mm 3 m/s 764 mmHg 62%

    Depois de amanhã, 12 Dezembro, Quinta-feira

    Tempo Temperatura Precipitação Vento Pressão Humidade
    00:00 +5°C° 0 mm 4 m/s 764 mmHg 63%
    01:00 +5°C° 0 mm 4 m/s 763 mmHg 62%
    02:00 +5°C° 0 mm 4 m/s 763 mmHg 60%
    03:00 +5°C° 0 mm 5 m/s 763 mmHg 58%
    04:00 +5°C° 0 mm 5 m/s 763 mmHg 56%
    05:00 +5°C° 0 mm 5 m/s 762 mmHg 54%
    06:00 +4°C° 0 mm 6 m/s 762 mmHg 53%
    07:00 +5°C° 0 mm 6 m/s 762 mmHg 51%
    08:00 +7°C° 0 mm 6 m/s 762 mmHg 50%
    09:00 +7°C° 0 mm 6 m/s 762 mmHg 48%
    10:00 +9°C° 0 mm 6 m/s 761 mmHg 45%
    11:00 +11°C° 0 mm 7 m/s 760 mmHg 42%
    12:00 +12°C° 0 mm 7 m/s 759 mmHg 39%
    13:00 +12°C° 0 mm 7 m/s 759 mmHg 39%
    14:00 +14°C° 0 mm 6 m/s 758 mmHg 39%
    15:00 +14°C° 0 mm 6 m/s 758 mmHg 39%
    16:00 +12°C° 0 mm 7 m/s 758 mmHg 41%
    17:00 +11°C° 0 mm 7 m/s 758 mmHg 43%
    18:00 +10°C° 0 mm 7 m/s 759 mmHg 45%
    19:00 +9°C° 0 mm 7 m/s 758 mmHg 45%
    20:00 +9°C° 0 mm 8 m/s 758 mmHg 46%
    21:00 +9°C° 0 mm 8 m/s 758 mmHg 46%
    22:00 +9°C° 0 mm 8 m/s 758 mmHg 46%
    23:00 +8°C° 0 mm 9 m/s 758 mmHg 45%

    13 Dezembro, Sexta-feira

    Tempo Temperatura Precipitação Vento Pressão Humidade
    00:00 +8°C° 0 mm 9 m/s 757 mmHg 45%
    01:00 +8°C° 0 mm 9 m/s 757 mmHg 45%
    02:00 +8°C° 0 mm 9 m/s 757 mmHg 45%
    03:00 +7°C° 0 mm 10 m/s 757 mmHg 45%
    04:00 +7°C° 0 mm 9 m/s 757 mmHg 46%
    05:00 +7°C° 0 mm 9 m/s 757 mmHg 46%
    06:00 +7°C° 0 mm 8 m/s 756 mmHg 46%
    07:00 +7°C° 0 mm 8 m/s 757 mmHg 47%
    08:00 +7°C° 0 mm 8 m/s 757 mmHg 47%
    09:00 +9°C° 0 mm 8 m/s 757 mmHg 48%
    10:00 +10°C° 0 mm 7 m/s 756 mmHg 45%
    11:00 +11°C° 0 mm 7 m/s 756 mmHg 43%
    12:00 +12°C° 0 mm 7 m/s 756 mmHg 41%
    13:00 +13°C° 0 mm 6 m/s 756 mmHg 41%
    14:00 +14°C° 0 mm 6 m/s 756 mmHg 41%
    15:00 +14°C° 0 mm 5 m/s 756 mmHg 42%
    16:00 +13°C° 0 mm 5 m/s 756 mmHg 42%
    17:00 +12°C° 0 mm 5 m/s 757 mmHg 43%
    18:00 +10°C° 0 mm 5 m/s 757 mmHg 43%
    19:00 +10°C° 0 mm 5 m/s 758 mmHg 45%
    20:00 +10°C° 0 mm 5 m/s 758 mmHg 46%
    21:00 +9°C° 0 mm 5 m/s 759 mmHg 48%
    22:00 +9°C° 0 mm 5 m/s 759 mmHg 48%
    23:00 +9°C° 0 mm 5 m/s 759 mmHg 48%

    14 Dezembro, Sábado

    Tempo Temperatura Precipitação Vento Pressão Humidade
    00:00 +9°C° 0 mm 6 m/s 759 mmHg 49%
    01:00 +9°C° 0 mm 6 m/s 759 mmHg 49%
    02:00 +9°C° 0 mm 6 m/s 759 mmHg 49%
    03:00 +9°C° 0 mm 7 m/s 760 mmHg 48%
    04:00 +9°C° 0 mm 7 m/s 760 mmHg 49%
    05:00 +9°C° 0 mm 7 m/s 760 mmHg 49%
    06:00 +9°C° 0 mm 7 m/s 760 mmHg 49%
    07:00 +9°C° 0 mm 7 m/s 761 mmHg 50%
    08:00 +9°C° 0 mm 7 m/s 761 mmHg 50%
    09:00 +10°C° 0 mm 7 m/s 761 mmHg 50%
    10:00 +11°C° 0 mm 7 m/s 761 mmHg 48%
    11:00 +12°C° 0 mm 7 m/s 761 mmHg 46%
    12:00 +14°C° 0 mm 7 m/s 761 mmHg 44%
    13:00 +14°C° 0 mm 7 m/s 760 mmHg 43%
    14:00 +14°C° 0 mm 6 m/s 760 mmHg 43%
    15:00 +15°C° 0 mm 6 m/s 760 mmHg 43%
    16:00 +14°C° 0 mm 6 m/s 761 mmHg 44%
    17:00 +13°C° 0 mm 6 m/s 761 mmHg 46%
    18:00 +11°C° 0 mm 6 m/s 762 mmHg 47%
    19:00 +10°C° 0 mm 6 m/s 762 mmHg 48%
    20:00 +10°C° 0 mm 6 m/s 763 mmHg 49%
    21:00 +10°C° 0 mm 6 m/s 763 mmHg 50%
    22:00 +9°C° 0 mm 6 m/s 763 mmHg 51%
    23:00 +9°C° 0 mm 6 m/s 763 mmHg 51%

    15 Dezembro, Domingo

    Tempo Temperatura Precipitação Vento Pressão Humidade
    00:00 +9°C° 0 mm 6 m/s 763 mmHg 51%
    01:00 +9°C° 0 mm 5 m/s 764 mmHg 51%
    02:00 +9°C° 0 mm 5 m/s 764 mmHg 52%
    03:00 +8°C° 0 mm 5 m/s 764 mmHg 52%
    04:00 +8°C° 0 mm 5 m/s 764 mmHg 53%
    05:00 +8°C° 0 mm 5 m/s 764 mmHg 53%
    06:00 +8°C° 0 mm 4 m/s 764 mmHg 54%
    07:00 +8°C° 0 mm 4 m/s 765 mmHg 53%
    08:00 +8°C° 0 mm 4 m/s 765 mmHg 53%
    09:00 +10°C° 0 mm 4 m/s 765 mmHg 53%
    10:00 +11°C° 0 mm 3 m/s 765 mmHg 50%
    11:00 +12°C° 0 mm 3 m/s 765 mmHg 47%
    12:00 +15°C° 0 mm 2 m/s 765 mmHg 44%
    13:00 +15°C° 0 mm 2 m/s 765 mmHg 46%
    14:00 +15°C° 0 mm 1 m/s 765 mmHg 48%
    15:00 +15°C° 0 mm 1 m/s 765 mmHg 51%
    16:00 +14°C° 0 mm 1 m/s 766 mmHg 53%
    17:00 +13°C° 0 mm 1 m/s 766 mmHg 55%
    18:00 +12°C° 0 mm 1 m/s 767 mmHg 57%
    19:00 +12°C° 0 mm 2 m/s 767 mmHg 56%
    20:00 +12°C° 0 mm 2 m/s 768 mmHg 56%
    21:00 +12°C° 0 mm 2 m/s 768 mmHg 55%
    22:00 +12°C° 0 mm 2 m/s 768 mmHg 58%
    23:00 +10°C° 0 mm 2 m/s 769 mmHg 62%
    Mostrar mais